Location: Orange
(33.2833°S, 149.1000°E)
Time: 20:14:17
(UTC+11:00)

Hubble Space Telescope - Pass Details

Date: 29 September 2022
Orbit: 530 x 534 km, 28.5° (Epoch: 04 December)

Event Time Altitude Azimuth Distance (km) Brightness Sun altitude
Exits shadow 04:39:30 12° 331° (NNW) 1,630 2.8 -14.2°
Maximum altitude 04:42:12 22° 18° (NNE) 1,197 2.6 -13.7°
Drops below altitude 10° 04:45:26 10° 69° (ENE) 1,789 4.4 -13.0°
Sets 04:48:04 0° 84° (E) 2,682 5.9 -12.5°
